sat.trackr.live / text

‹ back to catalog

TIANPING 3B-02

NORAD 61616 · 2024-189C

PAYLOAD ACTIVE UNKNOWN

§ Identity

Operator
Country
PRC
Launch date
2024-10-22
Launch site
TAISC
Launch vehicle
Mass (kg)
RCS (m²)

External: N2YO · Heavens-Above · Gunter

§ Orbital elements

Epoch: 2026-05-25T04:20:40.255008Z

Period
95.93 min
Inclination
97.5222°
Eccentricity
0.0002924
Mean motion
15.01021773 rev/d
Perigee alt
561.7 km
Apogee alt
565.8 km
Semi-major
6,941.9 km
B*
1.8629e-4
RAAN
166.1540°
Arg perigee
76.5899°
Mean anomaly
283.5651°
Rev number
8,699

§ Raw data

TIANPING 3B-021 61616U 24189C   26145.18102147  .00002322  00000+0  18629-3 0  99932 61616  97.5222 166.1540 0002924  76.5899 283.5651 15.01021773 86992

JSON: /api/v1/satellites/61616 · /tle

For live sub-satellite position, see the globe view (requires WebGL).

§ Visibility from observer

Set your observer location to see the next 7 days of passes ≥ 10°. The values pass through the URL so the page stays shareable.

No JS? Fill the form by hand. The geolocation button needs JavaScript.